Theta_e
305 306 306 306 307 307 308 308 308 308 308 309 309 309 309 309 310 310 312 317 316 317 316 326 324 327 329 330 330 332 328 330 329 328 329 329 326 329 327 327 327 326 326 327 327
309 308 307 305 305 305 305 306 307 307 308 308 309 309 308 308 309 312 319 317 316 314 317 316 327 327 327 329 330 330 328 332 331 328 327 328 326 327 326 325 327 327 325 326 326
305 306 307 308 309 308 307 305 305 305 306 307 308 308 308 308 309 317 316 316 317 315 316 317 321 328 328 328 329 330 331 330 330 329 328 328 328 328 326 324 326 326 325 326 326
303 304 305 305 306 307 308 309 309 307 305 305 305 307 307 307 309 314 317 317 317 317 317 318 317 321 327 327 328 329 330 330 330 330 329 328 329 327 328 327 327 327 326 325 326
297 299 301 302 303 304 305 305 307 309 310 308 305 304 305 305 307 316 317 318 315 317 318 318 319 320 318 323 328 329 330 330 330 330 329 329 327 327 327 329 327 326 325 325 325
299 297 296 298 300 302 303 304 305 306 306 308 309 306 303 304 312 313 313 311 312 315 316 318 318 318 318 319 320 325 326 328 329 329 329 327 327 326 328 328 328 325 325 325 325
303 303 300 298 299 301 302 303 304 305 306 306 307 307 308 305 310 310 311 313 312 312 313 316 317 319 319 317 319 320 320 321 322 324 324 326 325 325 327 327 327 324 324 324 324
306 304 303 303 301 300 300 299 299 300 302 306 306 308 311 310 310 309 309 313 313 312 313 317 317 318 319 319 319 319 319 321 322 322 325 324 326 324 327 327 326 325 325 324 324
304 304 303 303 303 301 301 302 302 300 300 305 307 307 309 309 310 314 312 310 313 314 315 318 321 319 318 316 316 318 321 320 321 321 323 324 325 324 326 326 325 326 326 326 325
302 302 302 303 303 303 302 302 302 301 301 307 308 310 307 309 311 312 312 310 309 313 313 317 321 319 314 317 321 322 319 321 322 323 323 323 323 324 326 326 325 326 327 327 327
302 302 302 302 303 303 303 306 308 312 309 310 308 309 313 312 313 314 314 311 310 313 314 315 318 318 320 318 319 321 321 321 322 323 324 324 324 326 326 326 324 326 327 327 327
302 302 302 302 302 302 305 308 310 307 306 308 310 311 309 310 312 313 315 313 312 313 313 314 315 316 316 317 317 318 320 322 322 322 322 323 325 326 325 325 325 326 327 326 326
302 302 302 302 303 302 308 310 308 307 307 310 310 311 312 311 313 312 314 315 313 313 313 314 315 318 318 317 320 320 320 320 324 324 323 323 324 325 326 326 327 327 326 325 327
302 302 302 302 303 304 305 308 308 308 309 311 311 312 312 313 315 313 314 316 315 313 313 313 315 317 317 316 316 321 322 322 323 325 324 323 325 322 324 324 324 325 325 326 327
302 301 302 303 304 304 303 307 309 308 309 309 310 311 312 313 316 316 316 315 316 315 314 313 314 315 315 315 316 320 322 322 324 325 323 324 323 322 322 325 324 323 325 327 327
301 301 303 303 303 303 304 307 309 309 310 309 310 310 312 313 314 320 317 316 316 316 315 315 315 314 314 316 316 318 321 321 322 323 323 324 324 326 323 325 325 322 326 326 325
301 301 302 303 303 303 304 306 309 312 309 309 308 308 309 313 314 317 318 316 316 316 315 316 315 316 315 315 317 318 318 320 322 324 326 324 325 326 323 323 324 324 326 326 326
301 301 302 302 302 304 305 306 311 307 308 308 308 308 311 308 310 316 318 317 316 315 315 315 317 317 317 316 315 315 317 321 325 325 325 323 324 325 323 323 325 327 327 326 326
302 303 302 303 303 305 305 308 306 307 306 307 307 308 308 308 309 311 317 318 316 316 315 315 316 318 318 318 316 316 316 319 322 324 323 323 324 325 324 324 325 326 327 327 327
303 303 303 304 304 305 305 305 306 306 306 306 307 307 307 307 308 310 313 317 318 317 316 316 316 317 318 317 317 316 319 322 319 325 325 324 325 327 323 326 326 326 325 327 327
302 303 304 305 305 305 306 305 304 304 306 307 307 306 307 307 307 309 311 315 316 318 316 316 316 319 317 317 317 316 317 321 321 321 324 324 324 321 323 322 327 326 326 327 328
302 303 303 304 305 304 304 304 305 305 305 306 307 307 308 309 308 310 311 313 312 314 318 316 314 316 318 318 318 317 316 320 324 323 321 322 322 323 321 326 327 326 327 328 328
301 302 304 304 306 304 303 304 305 306 306 306 307 307 308 309 308 311 313 313 312 313 315 317 316 316 320 319 320 317 318 321 319 320 322 322 322 323 325 326 329 328 327 328 328
301 301 303 301 302 304 305 306 305 305 306 306 306 305 308 308 309 308 309 310 310 311 314 313 317 316 319 321 320 320 319 322 322 322 322 323 324 325 326 329 327 328 328 328 328
301 303 304 302 303 303 304 304 305 305 304 305 304 305 306 307 309 309 308 308 310 312 310 310 317 316 317 319 321 322 321 322 324 322 324 323 323 324 323 329 328 329 328 327 328
301 303 302 302 303 302 303 303 305 306 306 306 306 307 307 308 309 311 309 309 311 311 310 309 314 318 317 318 318 319 321 323 324 323 322 323 324 323 323 329 329 328 327 326 327
302 302 302 303 300 300 301 305 305 306 306 306 307 307 307 307 309 309 310 310 310 310 309 310 314 317 318 318 318 318 320 323 324 324 324 323 321 321 324 326 329 327 327 327 327
Wind_Speed
24 25 25 25 26 26 24 24 22 22 22 21 20 20 20 24 22 22 28 21 16 18 21 11 19 18 16 14 18 9 2 8 7 7 11 23 4 25 14 10 10 11 12 12 23
22 22 24 26 27 27 27 26 24 24 23 22 22 21 21 24 26 29 25 22 21 20 23 27 20 19 19 7 13 10 6 13 14 11 10 24 9 21 7 15 7 3 11 10 27
23 23 23 23 24 26 27 27 26 25 24 24 23 23 21 21 24 34 14 17 15 25 29 20 19 16 19 15 20 10 14 20 23 25 26 25 27 28 8 6 19 12 19 21 30
20 20 21 24 25 24 24 27 27 26 25 25 24 24 21 17 7 3 14 9 2 17 26 23 22 20 7 9 35 7 18 26 33 35 29 20 31 17 16 18 22 15 18 25 32
20 20 20 21 23 25 26 24 25 26 26 26 25 25 22 18 26 10 16 12 9 5 31 29 23 25 13 11 20 15 22 31 33 34 33 35 24 23 18 27 19 14 24 28 30
20 22 22 21 21 22 23 24 23 25 26 24 26 26 22 16 35 35 34 31 26 16 16 32 26 35 6 14 17 21 20 23 28 29 32 20 25 15 25 26 28 24 25 27 29
20 21 21 21 21 21 22 25 24 22 23 21 23 23 28 40 26 17 21 34 35 33 28 27 31 13 10 11 33 26 14 16 15 22 23 22 16 10 28 29 25 28 25 26 28
22 21 21 22 22 23 22 21 25 25 20 16 16 17 19 27 29 37 33 27 29 30 31 26 19 30 29 19 13 6 5 7 14 14 26 12 22 14 31 31 27 28 27 28 30
22 23 22 22 24 25 24 23 20 24 17 15 17 15 19 16 27 38 38 44 32 30 26 26 24 22 8 12 5 4 13 14 15 12 13 8 17 12 31 32 30 28 26 30 32
22 23 23 22 22 24 28 27 24 18 16 10 11 6 21 19 25 25 32 39 34 24 28 23 17 8 5 5 9 11 6 6 16 16 8 11 13 18 30 24 27 24 24 29 29
26 25 24 22 23 22 24 25 6 3 11 15 19 24 9 6 8 12 13 23 25 14 13 23 9 16 24 25 19 9 6 9 20 19 6 8 15 22 22 11 16 27 31 30 20
25 25 27 25 21 19 17 10 10 12 15 25 39 36 36 22 10 21 16 16 18 18 8 8 26 22 18 16 15 13 12 16 22 18 5 14 17 21 10 7 20 27 30 23 15
25 23 23 24 25 17 12 13 17 23 8 17 31 34 39 32 20 34 15 19 7 13 19 25 9 19 20 14 13 17 18 21 19 17 8 9 14 13 11 5 7 14 19 16 22
23 24 22 21 19 10 15 9 19 13 4 7 10 14 31 24 13 45 29 14 9 21 21 17 22 17 19 18 17 18 19 19 20 12 8 7 5 5 7 7 4 17 16 13 28
23 22 22 16 19 23 11 12 11 12 5 4 4 7 13 34 17 24 46 26 17 14 12 11 20 25 21 27 22 20 14 18 17 14 8 21 2 8 6 6 8 9 9 23 34
23 23 20 20 20 16 15 13 5 2 8 6 9 12 2 22 16 2 25 26 21 13 19 18 14 20 25 18 22 24 11 9 8 8 7 16 4 13 5 7 6 1 18 28 32
25 22 20 18 20 10 10 9 0 6 9 2 14 20 18 6 16 7 9 20 11 13 19 13 21 16 12 23 16 12 7 3 3 6 9 10 6 18 7 9 8 8 21 27 33
26 22 20 19 13 10 4 1 8 7 13 19 18 19 10 20 11 14 6 19 23 14 12 15 11 25 23 23 19 23 13 6 7 4 4 7 7 11 10 8 16 25 29 32 34
25 19 19 11 7 7 2 6 3 5 9 15 19 8 10 20 11 9 21 14 23 21 8 15 16 6 25 15 20 8 19 15 3 3 2 4 6 9 1 6 10 17 26 31 34
20 15 9 8 8 10 2 8 3 10 15 14 8 7 17 17 12 17 5 7 17 23 8 5 6 16 16 17 19 25 6 6 1 11 6 4 3 5 3 8 9 10 17 27 32
15 9 5 2 7 6 2 4 6 18 14 7 11 11 15 16 13 12 9 9 19 6 16 12 4 5 16 20 28 7 17 6 6 6 7 4 8 7 12 12 14 15 25 35 35
9 2 4 5 2 1 2 3 6 11 17 11 6 6 9 13 14 8 8 9 27 21 10 21 5 9 16 1 19 14 9 17 7 5 2 6 8 5 8 16 16 16 28 35 37
13 5 7 5 1 1 3 8 12 13 12 5 6 10 13 12 8 6 9 9 19 19 14 7 15 6 7 2 4 19 16 11 5 4 8 7 7 4 3 11 21 23 29 35 36
5 3 4 8 4 1 3 6 4 9 11 14 6 8 10 11 12 8 13 10 27 24 13 8 5 27 15 11 7 7 18 13 9 5 6 12 5 5 6 12 9 19 32 37 38
3 2 5 3 3 5 4 4 10 6 7 8 4 7 11 9 10 15 17 19 17 10 11 5 8 18 29 15 3 4 17 20 14 13 13 7 10 8 11 14 21 32 32 32 37
5 4 8 8 11 5 4 3 9 10 5 9 7 9 6 10 13 13 12 8 6 7 12 6 6 7 21 30 22 15 8 23 20 9 8 11 7 8 17 26 20 26 31 32 37
5 8 7 6 4 3 2 9 11 14 11 7 11 12 12 10 11 13 9 10 11 14 9 4 5 7 20 19 20 18 21 12 17 15 13 10 8 8 7 15 23 26 35 37 40
Wind_Direction
283 283 282 283 284 284 283 281 282 282 282 280 280 283 286 286 283 274 265 267 267 255 250 241 215 221 219 227 221 213 126 258 242 231 261 292 298 296 309 313 230 225 206 237 193
287 284 282 282 281 280 280 280 278 277 277 277 276 277 280 283 286 278 281 280 261 246 237 227 220 216 228 241 223 183 174 241 240 255 265 277 253 285 299 316 312 248 212 197 180
296 291 287 284 280 279 279 279 277 274 276 274 273 272 275 282 295 281 274 260 234 217 228 231 227 220 234 237 232 211 226 245 265 261 264 272 285 282 277 291 287 200 180 179 183
303 300 294 290 286 282 278 276 276 276 275 274 271 268 267 266 232 206 200 192 203 213 214 226 223 227 213 216 242 256 249 246 258 267 271 268 273 268 260 279 288 253 205 189 189
307 305 301 297 292 289 285 278 275 275 272 271 271 270 264 239 231 210 211 243 284 219 212 215 212 222 219 232 249 247 245 249 255 264 269 272 268 260 257 281 281 228 196 197 203
329 315 307 302 298 291 287 288 279 271 270 270 268 268 264 241 252 248 245 255 254 244 233 224 223 226 289 236 238 247 256 259 269 272 269 274 273 253 275 282 285 212 203 205 206
331 333 327 319 314 302 291 286 280 273 268 269 267 270 261 248 251 251 236 241 240 242 244 236 234 217 220 257 257 265 270 276 271 274 267 279 277 253 275 278 271 209 211 207 207
326 325 324 325 318 312 309 292 277 271 269 265 267 259 253 261 267 252 233 229 230 229 230 235 248 237 241 259 297 298 288 263 261 262 270 235 269 276 281 274 248 218 219 214 214
327 325 323 320 320 320 315 309 302 272 257 251 262 251 282 268 246 259 240 234 223 224 225 229 240 219 233 223 278 242 255 256 273 256 266 215 271 271 282 268 242 225 226 236 235
321 317 320 321 319 321 318 317 309 262 246 231 235 274 249 235 244 247 238 232 223 225 231 217 224 197 200 176 219 222 232 244 256 252 266 275 267 266 263 251 222 221 242 241 245
323 320 314 311 315 322 323 333 356 355 205 208 206 203 79 231 234 243 235 208 203 219 195 197 196 213 209 220 229 244 246 256 260 263 268 260 266 267 268 248 226 229 242 248 252
318 317 317 312 307 315 313 314 353 324 292 261 253 242 245 256 295 248 222 163 183 201 158 215 222 212 224 229 228 231 243 255 273 266 244 274 284 267 262 235 228 235 241 245 220
320 317 312 311 307 308 276 305 345 339 266 278 244 240 230 248 240 254 206 194 174 188 198 208 219 202 207 213 218 223 227 242 255 282 259 268 282 275 285 266 242 256 259 233 206
319 317 316 310 306 288 298 312 322 347 283 270 212 242 210 220 252 235 224 197 203 197 207 232 224 203 214 221 214 238 221 234 246 264 258 146 267 287 246 267 286 299 306 218 191
319 318 313 301 288 286 305 292 326 138 300 222 219 215 203 187 135 210 219 203 216 179 180 203 187 211 222 217 212 233 226 238 247 253 253 277 255 260 266 276 274 268 211 186 183
322 321 316 298 275 291 303 319 331 113 249 300 58 348 138 212 228 118 180 199 208 222 218 211 190 206 220 224 213 230 240 243 259 245 238 251 177 275 219 224 262 13 183 178 181
321 316 306 289 269 306 308 336 318 212 315 130 356 345 320 189 228 250 181 189 180 197 219 216 218 220 191 209 219 200 183 250 269 214 228 231 216 248 226 230 213 174 176 181 180
322 314 305 282 278 274 343 68 222 239 260 302 349 340 49 19 341 230 245 194 211 189 179 207 218 211 208 205 207 222 204 191 187 205 221 207 221 255 231 270 222 177 171 175 178
324 322 309 324 249 191 206 215 212 353 304 345 352 356 351 351 334 333 219 221 205 202 158 195 226 243 204 202 191 202 211 212 215 294 132 215 273 329 54 111 125 145 154 169 179
339 329 356 343 184 196 149 231 281 334 315 331 342 347 330 334 338 354 298 269 229 215 219 212 198 233 211 199 225 218 157 164 312 216 221 274 225 221 160 160 153 151 165 170 176
351 330 356 20 162 197 209 211 273 272 322 324 327 312 317 327 322 327 279 30 31 313 223 250 59 326 200 205 206 177 211 209 170 170 192 209 254 210 200 182 166 177 173 174 178
333 306 284 183 137 139 266 267 319 274 292 297 266 304 309 320 309 312 266 309 351 344 306 209 133 240 245 286 209 214 186 195 208 219 193 164 254 288 198 167 166 168 174 179 183
324 281 329 188 87 192 288 285 270 274 265 260 297 290 295 288 291 314 299 320 344 348 352 327 214 252 322 173 241 201 205 190 134 114 185 157 248 240 224 154 169 159 173 179 180
325 323 347 64 41 241 246 256 268 301 299 261 267 296 286 308 261 266 277 308 333 325 349 324 253 210 216 214 168 198 206 186 163 161 172 203 181 162 161 151 157 168 172 176 179
337 284 339 328 289 252 255 277 286 290 247 289 278 239 262 284 285 266 265 290 321 285 360 19 255 207 220 247 230 193 207 197 187 185 186 192 173 197 177 176 180 176 169 168 174
316 326 343 288 290 328 310 318 323 319 285 292 284 304 338 294 269 291 271 269 284 298 351 349 292 241 220 230 237 250 251 203 204 186 138 166 199 196 187 186 164 173 168 173 179
311 322 329 298 313 1 246 348 312 310 295 276 295 296 301 295 334 263 232 238 240 276 303 285 333 330 221 218 234 241 237 221 196 180 156 178 195 164 155 173 180 177 176 180 184